Regional Weather Roundup
Issued by NWS

Home | Current Version | Previous Version | Text Only | Print | Product List | Glossary Off
Versions: 1 2 3 4 5 6 7 8 9 10 11 12 13 14 15 16 17 18 19 20 21 22 23 24 25 26 27 28 29 30 31 32 33 34 35 36 37 38 39 40 41 42 43 44 45 46 47 48 49 50

116
ASUS45 KABQ 140810
RWRNM
NEW MEXICO REGIONAL WEATHER ROUNDUP
NATIONAL WEATHER SERVICE ALBUQUERQUE NM
100 AM MST THU DEC 14 2017

NOTE: "FAIR" MEANS FEW OR NO CLOUDS BELOW 12,000 FEET AGL WITH NO
       SIGNIFICANT WEATHER OR OBSTRUCTIONS TO VISION.

      THIS PRODUCT IS RELEASED AS TWO VERSIONS.  ONE VERSION NEAR
      THE TOP OF THE HOUR CONTAINING PRELIMINARY DATA FROM ALBUQUERQUE
      AND OTHER STATIONS.  A FINAL VERSION WITH ADDITIONAL DATA IS
      ISSUED ABOUT 10 MINUTES AFTER THE HOUR.

NMZ501-503-504-510>518-140900-
NORTHWEST PLATEAU/NORTHCENTRAL MOUNTAINS

CITY           SKY/WX    TMP DP  RH WIND       PRES   REMARKS
FARMINGTON     MOCLDY    29   5  36 SW3       29.99F
LOS ALAMOS     FAIR      37   6  27 SW5       30.00F WCI  33
SANTA FE       FAIR      32   8  36 S5        30.00F WCI  27
TAOS           CLOUDY    32   7  35 E7        30.03F WCI  26
ANGEL FIRE     CLOUDY    25  12  58 NE7       30.06R WCI  17

$$
NMZ402-403-502-505>509-140900-
WESTCENTRAL MOUNTAINS/SOUTHWEST MOUNTAINS

CITY           SKY/WX    TMP DP  RH WIND       PRES   REMARKS
GALLUP         FAIR      23   0  36 E3        30.03F
GRANTS         FAIR      16  -1  48 NW8       30.05F WCI   5
SILVER CITY    FAIR      32  16  52 NW10      30.02S WCI  23

$$
NMZ407-409-411-412-140900-
SOUTHERN DESERTS

CITY           SKY/WX    TMP DP  RH WIND       PRES   REMARKS
DEMING         FAIR      33  14  45 W7        29.98F WCI  27
LAS CRUCES     FAIR      33  17  51 CALM      29.99S
HOLLOMAN AFB   FAIR      29   3  33 N6        30.00F WCI  22
ALAMOGORDO     FAIR      32   5  32 N5        29.98F WCI  27
T OR C         NOT AVBL

$$
NMZ519>523-140900-
CENTRAL VALLEYS/CENTRAL HIGHLANDS

CITY           SKY/WX    TMP DP  RH WIND       PRES   REMARKS
ALBUQUERQUE    FAIR      35   7  31 N7        30.00F WCI  29
MORIARTY ARPT  FAIR      13  -1  54 N5        30.02F WCI   5
CLINES CORNERS FAIR      30   5  34 S8        30.02F WCI  22
BELEN          FAIR      21   2  44 CALM      30.00F
SOCORRO        FAIR      28   2  33 NW7       30.00S WCI  20

$$
NMZ524>526-539-540-140900-
SOUTHCENTRAL MOUNTAINS

CITY           SKY/WX    TMP DP  RH WIND       PRES   REMARKS
RUIDOSO        FAIR      36   1  23 CALM      30.03F

$$
NMZ527>531-140900-
NORTHEAST HIGHLANDS/NORTHEAST PLAINS

CITY           SKY/WX    TMP DP  RH WIND       PRES   REMARKS
LAS VEGAS      FAIR      33   9  36 SE5       30.03S WCI  29
RATON          CLOUDY    32  10  40 N7        30.06F WCI  26
CLAYTON        MOCLDY    37  14  38 N10       30.07R WCI  30

$$
NMZ532>537-140900-
EASTCENTRAL PLAINS

CITY           SKY/WX    TMP DP  RH WIND       PRES   REMARKS
SANTA ROSA     FAIR      31  13  48 NE3       30.01R
TUCUMCARI      FAIR      28  14  55 N10       30.00R WCI  19
CANNON AFB     CLEAR     29  13  50 NE10      30.01R WCI  20
CLOVIS AIRPORT FAIR      29  15  56 N12       30.00S WCI  19

$$
NMZ028-029-538-140900-
SOUTHEAST PLAINS

CITY           SKY/WX    TMP DP  RH WIND       PRES   REMARKS
ROSWELL        FAIR      35  11  36 NW5       29.97F WCI  31
ARTESIA        FAIR      34   9  35 NW10      29.98S WCI  26
CARLSBAD       FAIR      40  17  39 NW8       29.96S WCI  34


$$




USA.gov is the U.S. government's official web portal to all federal, state and local government web resources and services.